Location: Clermont
(50.2608°N, 4.3172°E)
Time: 06:35:05
(UTC+00:00)

Cosmos 1500 - Pass Details

Date: 13 August 2020
Orbit: 500 x 518 km, 82.5° (Epoch: 23 September)

Event Time Altitude Azimuth Distance (km) Brightness Sun altitude
Exits shadow 20:59:57 31° 119° (ESE) 897 3.9 -15.7°
Maximum altitude 21:00:43 35° 92° (E) 834 3.9 -15.8°
Drops below altitude 10° 21:04:10 10° 26° (NNE) 1,722 6.1 -16.2°
Sets 21:06:24 0° 18° (NNE) 2,615 7.2 -16.4°
